Regional Weather Roundup
Issued by NWS Upton, NY

Current Version | Previous Version | Text Only | Print | Product List | Glossary On
Versions: 1 2 3 4 5 6 7 8 9 10 11 12 13 14 15 16 17 18 19 20 21 22 23 24 25 26 27 28 29 30 31 32 33 34 35 36 37 38 39 40 41 42 43 44 45 46 47 48 49 50
000
ASUS41 KOKX 251705
RWROKX

REGIONAL WEATHER ROUNDUP
NATIONAL WEATHER SERVICE NEW YORK NY
1200 PM EST SUN JAN 25 2015

NOTE: "FAIR" INDICATES FEW OR NO CLOUDS BELOW 12,000 FEET WITH NO
SIGNIFICANT WEATHER AND/OR OBSTRUCTIONS TO VISIBILITY.

NYZ071-072-176-178-NJZ106-104-251800-
NEW YORK CITY METRO AREA


CITY           SKY/WX    TMP DP  RH WIND       PRES   REMARKS
CENTRAL PARK   MOSUNNY   41  14  33 VRB3G26   29.77R
LAGUARDIA APRT PTSUNNY   41  18  39 NW16G24   29.75R
KENNEDY INTL   PTSUNNY   43  19  38 NW17G26   29.76R
NEWARK/LIBERTY PTSUNNY   41  16  36 NW23G31   29.77R
BRNX BOT. GARD   N/A    N/A N/A N/A W18       29.74F
TETERBORO      PTSUNNY   40  15  36 NW15G22   29.75R WCI  32
$$

NYZ177-179-078>081-251800-
LONG ISLAND NEW YORK

CITY           SKY/WX    TMP DP  RH WIND       PRES   REMARKS
FARMINGDALE    MOSUNNY   42  23  46 NW12G22   29.74R
ISLIP          PTSUNNY   40  21  46 W20G26    29.70F WCI  30
SHIRLEY        MOSUNNY   40  23  50 NW17G26   29.72F WCI  31
WESTHAMPTON    MOSUNNY   43  24  47 W23G31    29.71F
MONTAUK POINT    N/A     41  27  57 W13G24    29.68F
$$

NYZ052-065-067-251800-
HUDSON VALLEY

CITY           SKY/WX    TMP DP  RH WIND       PRES   REMARKS
WHITE PLAINS   MOSUNNY   37  19  48 NW15G21   29.71R WCI  28
NEWBURGH       MOSUNNY   34  18  51 NW17G29   29.75S WCI  23
MONTGOMERY     SUNNY     34  12  40 NW16      29.74R WCI  24
POUGHKEEPSIE   SUNNY     37  15  40 W16G22    29.74R WCI  28
ALBANY         MOSUNNY   28   7  41 NW18      29.78R WCI  15
$$

NJZ001-105-106-008-010-013-015-019>022-104-251800-
NEW JERSEY

CITY           SKY/WX    TMP DP  RH WIND       PRES   REMARKS
NEWARK/LIBERTY PTSUNNY   41  16  36 NW23G31   29.77R
TETERBORO      PTSUNNY   40  15  36 NW15G22   29.75R WCI  32
CALDWELL       PTSUNNY   39  14  36 NW14G22   29.77R WCI  31
MORRISTOWN     PTSUNNY   39  12  33 NW20G28   29.77R WCI  30
SOMERVILLE     CLOUDY    42  21  43 NW17G37   29.76R
SUSSEX         MOSUNNY   37  15  40 NW10G18   29.76R WCI  30
ANDOVER          N/A     38  14  37 N8        29.76R WCI  32
TRENTON        CLOUDY    40  28  62 W9        29.80R WCI  34
MILLVILLE      MOSUNNY   47  32  56 W20G25    29.82F
ATLANTIC CITY  MOSUNNY   47  31  53 W17G24    29.81S
WRIGHTSTOWN    CLOUDY    40  30  66 W12       29.79R WCI  33
TOMS RIVER     CLOUDY    43  28  56 W13G22    29.81R
BELMAR         CLOUDY    41  27  56 W15       29.78R
$$

PAZ047>061-062-071-251800-
EASTERN PENNSYLVANIA

CITY           SKY/WX    TMP DP  RH WIND       PRES   REMARKS
PHILADELPHIA   PTSUNNY   44  31  60 W14       29.83S
ALLENTOWN      CLOUDY    39  27  62 W8        29.79R WCI  33
SCRANTON       SUNNY     33  15  47 N10       29.78R WCI  25
$$

CTZ002-004>006-009-010-012-RIZ004-006-007-MAZ004-011-015-251800-
SOUTHERN NEW ENGLAND
 IN CT

CITY           SKY/WX    TMP DP  RH WIND       PRES   REMARKS
BRADLEY INTL   MOSUNNY   34  14  43 NW23G30   29.70R WCI  22
HARTFORD       SUNNY     37  19  48 W14G25    29.71R WCI  28
DANBURY        SUNNY     37  15  40 W14G22    29.72R WCI  28
WTRBRY/OXFORD  MOSUNNY   37  16  41 NW7G17    29.68S WCI  32
BRIDGEPORT     SUNNY     40  19  43 NW16G23   29.70F WCI  31
MERIDEN        MOSUNNY   39  18  42 NW9G20    29.70S WCI  33
NEW HAVEN      SUNNY     39  19  44 W13G22    29.69F WCI  31
CHESTER        FAIR      37  23  56 NW8       29.68S WCI  31
GROTON         MOSUNNY   38  25  59 NW13G22   29.67S WCI  30
WILLIMANTIC    MOSUNNY   37  21  52 NW14G22   29.68S WCI  28

 IN RI

CITY           SKY/WX    TMP DP  RH WIND       PRES   REMARKS
PROVIDENCE     PTSUNNY   38  22  52 W13G26    29.65R WCI  30
BLOCK ISLAND   SUNNY     41  27  56 W22G30    29.66F
WESTERLY       MOSUNNY   39  23  52 W13G22    29.67F WCI  31

 IN MA

CITY           SKY/WX    TMP DP  RH WIND       PRES   REMARKS
BOSTON         MOSUNNY   37  20  50 W17G28    29.62R WCI  27
WORCESTER      MOSUNNY   31  17  56 W20G26    29.59F WCI  19
WESTFIELD      MOSUNNY   32  13  45 NW18G25   29.70R WCI  20
PROVINCETOWN   NOT AVBL
NANTUCKET      SUNNY     43  31  62 W20G31    29.63R
$$

ANZ330-335-338-340-345-350-353-355-251800-
COASTAL MARINE OBSERVATIONS


STATION/POSITION TIME  SKY/WX   TEMP    WIND        PRES    VSBY  WAVE
                                AIR SEA DIR/SP/G                  HT/PER
                 (UTC)          (F)     (DEG/KT/KT) (MB)    (MI)  (FT/S)
NY HARB ENTRANCE 1700            42 42  280/ 19/ 23 1007.1          5/11
4S FIRE IS       1700               39                N/A           6/13
20S FIRE ISLAND  1600               42              1007.3          6/12
23SW MTP         1700                                 N/A          10/ 7
HUDSON CANYON    NOT AVBL
EXECUTION ROCKS  1700            40 35  270/ 14/ 21   N/A
WESTERN LI SOUND 1700            39     300/ 14/ 17   N/A           1/ 3
CENTRAL LI SOUND 1600            38 37  280/ 16/ 17   N/A           5/ 5
EASTERN LI SOUND NOT AVBL
ROBBINS REEF     1700            41     300/ 23/ 30 1006.3
$$


>>>>>>>>>>>>>>>>>>>>>>>>>>>> KEY <<<<<<<<<<<<<<<<<<<<<<<<<<<
>                                                          <
>     SKY/WX - SKY CONDITION/PRESENT WEATHER               <
>     TMP    - TEMPERATURE IN FAHRENHEIT                   <
>     DP     - DEWPOINT IN FAHRENHEIT                      <
>     RH     - RELATIVE HUMIDITY IN PERCENT                <
>     WIND   - DIRECTION AND SPEED IN MPH                  <
>     PRES   - MEAN SEA LEVEL PRESSURE IN INCHES OF HG     <
>     WCI    - WIND CHILL INDEX                            <
>     VSB    - VISIBILITY IN MILES                         <
>     HX     - HEAT INDEX                                  <
>     TC     - TEMPERATURE IN CELSIUS                      <
>     VRB    - VARIABLE WIND DIRECTION                     <
>                                                          <
>>>>>>>>>>>>>>>>>>>>>>>>>>>> KEY <<<<<<<<<<<<<<<<<<<<<<<<<<<




USA.gov is the U.S. government's official web portal to all federal, state and local government web resources and services.